Pittsburgh, PA

8:25 AM EST on December 09, 2019 (GMT -0500)
Pittsburgh International

Weather History for KPIT - October, 2019

Change the Weather History Date:

Wednesday, October 16, 2019

  Actual Average Record
Temperature  
Mean Temperature 52 °F 53 °F  
Max Temperature 59 °F 63 °F 87 °F (1897)
Min Temperature 45 °F 43 °F 25 °F (1876)
Degree Days  
Heating Degree Days 13 13  
Month to date heating degree days 123 166  
Since 1 July heating degree days 131 280  
Cooling Degree Days 0 0  
Month to date cooling degree days 37 6  
Year to date cooling degree days 934 734  
Growing Degree Days 2 (Base 50)    
Moisture  
Dew Point 44 °F    
Average Humidity 79    
Maximum Humidity 97    
Minimum Humidity 57    
Precipitation  
Precipitation 1.20 in 0.06 in 1.15 in (1919)
Month to date precipitation 3.17 1.15  
Year to date precipitation 43.26 30.97  
Sea Level Pressure  
Sea Level Pressure 29.70 in    
Wind  
Wind Speed 8 mph ()    
Max Wind Speed 23 mph    
Max Gust Speed 29 mph    
Visibility 7.8 miles    
Events Rain , Thunderstorm    
T = Trace of Precipitation, MM = Missing Value Source: Averaged Metar Reports

Daily Weather History Graph

Daily Weather History Graph

Search for Another Location

Airport or City:

Astronomy

Oct. 16, 2019 Rise Set
Actual Time 7:32 AM EDT 6:39 PM EDT
Civil Twilight 7:05 AM EDT 7:07 PM EDT
Nautical Twilight 6:33 AM EDT 7:38 PM EDT
Astronomical Twilight 6:01 AM EDT 8:10 PM EDT
Moon 8:31 PM EDT (10/16) 10:02 AM EDT (10/16)
Length of Visible Light 12h 02m
Length of Day
11h 06m
Waning Gibbous, 93% of the Moon is Illuminated
Oct 16
Waning Gibbous
Oct 21
Last Quarter
Oct 27
New
Nov 4
First Quarter
Nov 12
Full

Hourly Weather History & Observations

Time (EDT) Temp. Windchill Dew Point Humidity Pressure Visibility Wind Dir Wind Speed Gust Speed Precip Events Conditions
12:51 AM 54.0 °F - 41.0 °F 62% 29.83 in 10.0 mi SSE 5.8 mph - N/A   Scattered Clouds
1:51 AM 54.0 °F - 41.0 °F 62% 29.81 in 10.0 mi SSE 6.9 mph - N/A   Mostly Cloudy
2:51 AM 55.0 °F - 41.0 °F 59% 29.78 in 10.0 mi SSE 5.8 mph - N/A   Overcast
3:51 AM 55.9 °F - 41.0 °F 57% 29.74 in 10.0 mi SSE 4.6 mph - N/A   Overcast
4:51 AM 55.9 °F - 42.1 °F 60% 29.71 in 10.0 mi SSE 5.8 mph - N/A   Overcast
5:51 AM 57.0 °F - 42.1 °F 57% 29.69 in 10.0 mi SSE 5.8 mph - N/A   Overcast
6:34 AM 57.0 °F - 45.0 °F 64% 29.68 in 10.0 mi SSW 4.6 mph - 0.00 in Rain , Thunderstorm Light Thunderstorms and Rain
6:51 AM 55.0 °F - 46.9 °F 74% 29.70 in 4.0 mi SW 17.3 mph 26.5 mph 0.07 in Rain , Thunderstorm Thunderstorms and Rain
7:28 AM 54.0 °F - 50.0 °F 86% 29.67 in 6.0 mi SSW 9.2 mph - 0.14 in Rain Light Rain
7:51 AM 54.0 °F - 51.1 °F 90% 29.67 in 5.0 mi South 8.1 mph - 0.20 in Rain Light Rain
8:51 AM 53.1 °F - 51.1 °F 93% 29.64 in 4.0 mi SSE 6.9 mph - 0.11 in Rain Rain
9:11 AM 53.1 °F - 52.0 °F 96% 29.62 in 4.0 mi South 6.9 mph - 0.10 in Rain Rain
9:22 AM 54.0 °F - 53.1 °F 97% 29.63 in 2.0 mi South 8.1 mph - 0.16 in Rain Rain
9:51 AM 50.0 °F - 48.0 °F 93% 29.68 in 2.0 mi WNW 18.4 mph - 0.43 in Rain Heavy Rain
10:51 AM 48.9 °F - 46.9 °F 93% 29.71 in 2.0 mi NW 11.5 mph - 0.23 in Rain Rain
11:15 AM 48.9 °F - 46.0 °F 90% 29.67 in 5.0 mi NW 5.8 mph - 0.05 in Rain Light Rain
11:51 AM 48.0 °F - 45.0 °F 89% 29.70 in 5.0 mi WSW 4.6 mph - 0.09 in Rain Light Rain
12:51 PM 48.0 °F - 45.0 °F 89% 29.70 in 10.0 mi WSW 6.9 mph - 0.03 in   Overcast
1:25 PM 48.9 °F - 45.0 °F 86% 29.66 in 10.0 mi WSW 9.2 mph - N/A   Overcast
1:51 PM 50.0 °F - 45.0 °F 83% 29.68 in 10.0 mi WSW 6.9 mph - N/A   Overcast
2:51 PM 48.0 °F - 41.0 °F 77% 29.69 in 10.0 mi West 9.2 mph - N/A   Overcast
3:23 PM 48.9 °F - 39.0 °F 69% 29.66 in 10.0 mi West 13.8 mph - N/A   Overcast
3:51 PM 48.9 °F - 39.0 °F 69% 29.68 in 10.0 mi West 10.4 mph 25.3 mph N/A   Overcast
4:51 PM 48.0 °F - 37.9 °F 68% 29.69 in 10.0 mi West 10.4 mph 18.4 mph N/A   Overcast
5:26 PM 46.9 °F - 37.9 °F 71% 29.67 in 10.0 mi WSW 11.5 mph - N/A   Overcast
5:51 PM 46.9 °F - 37.9 °F 71% 29.70 in 10.0 mi WSW 9.2 mph 20.7 mph N/A   Overcast
6:51 PM 45.0 °F 40.1 °F 39.9 °F 82% 29.71 in 10.0 mi WSW 9.2 mph - 0.00 in Rain Light Rain
7:51 PM 45.0 °F 39.3 °F 41.0 °F 86% 29.71 in 8.0 mi WSW 11.5 mph - 0.00 in Rain Light Rain
8:09 PM 45.0 °F 39.3 °F 42.1 °F 90% 29.68 in 9.0 mi WSW 11.5 mph 17.3 mph 0.00 in Rain Light Rain
8:51 PM 45.0 °F 38.9 °F 42.1 °F 90% 29.70 in 10.0 mi WSW 12.7 mph 19.6 mph 0.00 in   Overcast
9:51 PM 46.0 °F 40.2 °F 42.1 °F 86% 29.70 in 9.0 mi West 12.7 mph 23.0 mph 0.00 in Rain Light Rain
10:51 PM 46.0 °F 39.9 °F 42.1 °F 86% 29.70 in 10.0 mi West 13.8 mph 20.7 mph 0.00 in Rain Light Rain
11:14 PM 46.0 °F 39.9 °F 42.1 °F 86% 29.67 in 4.0 mi West 13.8 mph 21.9 mph 0.01 in Rain Light Rain
11:51 PM 45.0 °F 38.2 °F 42.1 °F 90% 29.71 in 7.0 mi West 15.0 mph 26.5 mph 0.03 in Rain Light Rain